SCP
0 0 0 0 0 0 0 0 0 1 1 0 0 0 0 0 0 0 0 0 0 0 0 0 0 0 0 0 0 0 0 0 0 1 1 1 1 1 0 0 1 1 1
0 0 0 0 0 0 0 0 1 1 1 1 0 0 0 0 0 0 0 0 0 0 0 0 0 0 0 0 0 0 0 0 0 0 1 1 1 1 1 1 1 1 1
0 0 0 0 0 1 1 1 1 1 1 1 1 0 0 0 0 0 0 0 0 0 0 0 0 0 0 0 0 0 0 0 0 0 0 1 1 1 1 1 1 0 1
0 0 0 0 0 1 1 1 2 1 1 1 1 0 0 0 0 0 0 0 0 0 0 0 0 0 0 0 0 0 0 0 0 0 0 0 0 0 0 0 0 1 0
0 0 0 0 1 2 2 2 3 2 2 1 1 0 0 -0 0 0 0 0 0 0 0 0 0 0 0 0 0 0 0 0 0 0 0 0 0 0 0 0 0 0 0
0 0 1 1 2 2 2 2 2 1 1 0 0 0 -0 0 0 0 0 0 0 0 0 0 0 0 0 0 0 0 0 0 0 0 0 0 0 0 0 0 0 0 0
0 0 1 2 3 4 3 2 2 1 1 0 0 -0 0 0 0 0 0 0 0 0 0 0 0 0 0 0 0 0 0 0 0 0 0 0 0 0 0 0 0 0 0
1 2 3 1 1 0 0 0 0 1 1 0 0 -0 0 0 0 0 0 0 0 0 0 0 0 0 0 0 0 0 0 0 0 0 0 0 0 0 0 0 0 0 0
1 1 0 0 0 0 0 0 0 0 0 0 0 0 0 0 0 0 0 0 0 0 0 0 0 0 0 0 0 0 0 0 0 0 0 0 0 0 0 0 0 0 0
0 0 0 0 0 0 0 0 0 0 -0 -0 0 0 0 0 0 0 0 0 0 0 0 0 0 0 0 0 0 0 0 0 0 0 0 0 0 0 0 0 0 0 0
0 0 0 0 0 0 0 -0 -0 0 -0 0 0 0 0 0 0 0 0 0 0 0 0 0 0 0 0 0 0 0 0 0 -0 -0 0 0 0 -0 -0 0 0 0 0
0 0 0 0 0 -0 -0 0 -0 -0 0 0 0 0 0 0 0 0 0 0 0 0 0 0 0 0 0 0 0 0 0 0 0 0 0 0 0 -0 -0 -0 -0 0 0
0 0 0 0 -0 -0 0 -0 -0 0 0 0 0 0 0 0 0 0 0 0 0 0 0 0 0 0 0 0 0 0 0 0 0 0 0 0 0 0 -0 -0 -0 -0 0
0 -0 0 -0 -0 0 -0 -0 0 0 0 0 0 0 0 0 0 0 0 0 0 0 0 0 0 0 0 0 0 0 0 0 0 0 0 0 -0 0 0 0 0 0 0
0 0 -0 0 -0 -0 0 0 0 0 0 0 0 0 0 0 0 0 0 0 0 0 0 0 0 0 0 0 0 0 0 0 0 0 0 0 -0 0 0 0 0 0 0
0 -0 0 -0 0 0 0 0 0 0 0 0 0 0 0 0 0 0 0 0 0 0 0 0 0 0 0 0 0 0 0 0 0 0 0 0 0 0 0 0 0 0 0
0 0 0 0 0 0 0 0 0 0 0 0 0 0 0 0 0 0 0 0 0 0 0 0 0 0 0 0 0 0 0 0 0 0 0 0 0 0 0 0 0 0 0
0 0 0 0 0 0 0 0 0 0 0 0 0 0 0 0 0 0 0 0 0 0 0 0 0 0 0 0 0 0 0 0 0 0 0 0 0 0 0 0 0 0 0
0 0 0 0 0 0 0 0 0 0 0 0 0 0 0 0 0 0 0 0 0 0 0 0 0 0 0 0 0 0 0 0 0 0 0 0 0 0 0 0 0 0 0
0 0 0 0 0 0 0 0 0 0 0 0 0 0 0 0 0 0 0 0 0 0 0 0 0 0 0 0 0 0 0 0 0 0 0 0 0 0 0 0 0 0 0
0 0 0 0 0 0 0 0 0 0 0 0 0 0 0 0 0 0 0 0 0 0 0 0 0 -0 -0 0 0 0 0 0 0 0 0 0 0 0 0 0 0 0 0
0 0 0 0 0 0 0 0 0 0 0 0 0 0 0 0 0 0 0 0 0 0 0 0 0 0 -0 0 0 0 0 0 0 0 0 0 0 0 0 0 0 0 0
0 0 0 0 0 0 0 0 0 0 0 0 0 0 0 0 0 0 0 0 0 0 0 0 0 0 0 0 0 0 0 0 0 0 0 0 0 0 0 0 0 0 0
0 0 0 0 0 0 0 0 0 0 0 0 0 0 0 0 0 0 0 0 0 0 0 0 0 0 0 0 0 0 0 0 0 0 0 0 0 0 0 0 0 0 0
0 0 0 0 0 0 0 0 0 0 0 0 0 0 0 0 0 0 0 0 0 0 0 0 0 0 0 0 0 0 0 0 0 0 0 0 0 0 0 0 0 0 0
0 0 0 0 0 0 0 0 0 0 0 0 0 0 0 0 0 0 0 0 0 0 0 0 0 0 0 0 0 0 0 0 0 0 0 0 0 0 0 0 0 0 0
Wind_Speed_500mb
25 22 21 18 18 17 13 13 12 9 7 7 8 10 13 18 21 23 22 42 39 41 42 42 42 43 43 45 45 47 46 45 43 43 44 46 47 46 47 48 46 45 47
28 23 22 20 17 16 15 13 12 11 9 8 9 14 19 20 24 26 22 28 41 38 40 42 44 43 43 45 45 45 47 48 49 49 48 47 47 49 49 49 49 49 49
26 24 21 22 20 19 18 12 9 11 8 11 11 12 18 24 23 32 27 20 23 37 43 43 43 44 45 46 48 49 50 50 51 52 51 50 47 47 50 52 52 53 51
26 27 21 21 22 18 16 15 12 7 9 12 9 23 37 31 47 42 22 19 23 30 32 47 47 51 51 51 51 49 49 50 52 51 50 50 47 47 49 48 48 48 48
26 22 18 22 21 22 21 16 13 15 14 9 10 24 37 55 39 22 29 27 36 45 40 41 52 51 54 49 46 45 45 47 50 50 50 53 52 50 48 46 44 41 43
25 29 19 21 19 18 15 13 17 16 10 10 17 33 40 39 30 24 24 21 35 37 33 37 41 28 45 51 43 42 44 45 47 48 49 50 53 51 49 48 45 44 44
20 31 20 25 25 24 27 25 21 13 8 10 23 36 35 37 34 25 23 26 27 32 33 33 28 26 26 35 42 39 37 38 39 42 43 46 46 47 47 48 49 49 47
21 23 27 27 27 29 27 25 20 13 5 14 33 34 25 26 26 25 24 27 31 33 28 26 25 24 27 28 36 43 42 41 41 44 45 46 47 45 42 41 41 40 40
23 23 25 25 26 24 9 16 12 16 22 19 27 20 18 22 28 23 24 26 32 26 24 23 24 24 27 27 30 30 44 48 47 47 48 48 47 45 42 42 41 40 39
25 26 29 20 23 32 28 17 33 24 25 17 26 25 26 28 15 27 26 30 28 21 24 22 22 24 28 27 31 38 51 48 42 43 50 52 49 43 41 39 39 38 38
19 17 20 18 21 20 17 16 30 26 19 17 19 22 22 18 16 19 32 39 27 25 25 23 27 26 32 31 30 38 48 44 40 44 48 50 50 43 40 40 44 35 32
34 27 30 30 35 23 15 12 16 13 14 16 19 20 13 12 17 20 26 28 27 25 25 22 27 36 27 35 29 44 43 41 41 40 44 47 47 42 39 39 42 44 39
33 41 36 36 25 18 10 11 11 12 15 19 18 15 13 10 11 13 17 26 32 23 17 15 29 25 32 29 30 42 36 41 43 40 42 43 42 42 44 44 44 43 40
46 34 32 23 14 15 13 12 13 14 16 19 18 13 7 7 6 9 13 20 27 19 20 23 29 31 33 32 34 45 32 40 40 41 42 41 43 47 48 48 48 47 43
45 22 22 17 16 17 14 10 12 15 16 13 13 8 2 5 6 11 14 15 15 24 28 29 33 35 36 34 36 40 34 38 44 50 44 38 43 43 44 47 48 45 44
34 25 15 20 19 14 8 8 13 12 10 5 3 4 4 7 10 11 15 15 17 19 30 33 36 38 41 36 36 38 32 35 40 48 48 35 40 44 49 50 48 44 41
29 19 20 17 11 6 8 10 8 7 5 6 6 6 7 10 6 8 9 14 17 22 29 34 34 37 40 42 37 41 32 33 30 43 49 36 44 49 45 48 48 44 43
28 24 19 13 8 8 8 4 1 3 6 6 4 3 6 7 11 15 13 19 20 26 30 40 39 41 41 42 42 43 39 36 35 38 38 44 57 57 38 47 56 50 46
30 23 15 9 7 6 5 4 5 4 6 2 5 2 6 11 13 15 16 20 22 30 31 39 44 42 46 45 50 42 41 42 36 41 35 37 55 56 36 42 54 56 51
24 16 10 7 7 7 7 6 4 4 1 1 4 3 8 15 19 21 20 22 26 33 35 39 44 45 46 48 47 49 49 42 44 42 29 42 45 48 36 47 48 55 58
18 12 11 11 11 10 9 10 5 3 2 3 3 5 16 22 27 27 24 32 38 33 36 42 45 47 51 53 50 51 50 49 45 29 34 42 40 39 34 40 44 49 56
20 18 18 16 13 11 8 7 9 5 5 1 3 9 11 21 22 28 29 36 40 44 42 39 42 46 47 48 49 49 49 51 52 32 53 47 42 39 40 43 53 50 57
22 20 19 16 14 13 11 10 7 6 7 7 10 12 12 17 24 27 32 35 35 48 50 52 41 43 47 45 48 47 45 46 47 51 48 47 38 46 42 42 48 49 63
24 23 21 18 14 12 11 10 7 4 3 3 7 10 13 22 30 38 41 36 36 34 36 45 44 40 39 45 39 41 42 43 38 36 50 51 49 45 49 32 40 52 60
25 23 20 18 15 13 12 11 12 5 4 5 13 14 18 29 39 43 44 43 41 34 41 44 43 44 46 44 50 43 40 41 46 50 27 57 50 55 52 25 30 45 64
27 20 18 15 13 11 9 8 10 5 6 7 12 22 27 31 36 40 42 43 44 46 42 39 34 31 33 31 37 37 38 44 46 48 40 59 54 51 37 16 60 46 70
Wind_Direction_500mb
195 194 198 193 198 211 218 216 223 236 257 272 295 306 310 322 318 316 313 302 310 309 311 312 312 309 306 305 306 307 307 306 305 304 303 298 295 291 289 289 291 296 296
210 202 207 204 206 206 212 210 227 224 242 281 301 320 328 322 318 310 309 306 313 312 314 314 312 310 311 310 309 307 303 300 300 299 298 298 295 292 290 292 293 292 294
218 198 203 205 208 208 205 221 232 242 262 288 300 325 331 318 318 309 313 308 314 328 319 313 312 314 312 310 309 306 303 301 300 300 298 297 295 294 292 290 291 293 291
219 210 207 206 210 206 212 214 223 214 231 264 298 337 333 319 319 310 300 311 309 315 320 314 314 314 313 312 311 305 304 303 301 301 301 299 297 295 293 296 297 292 286
215 198 198 204 205 208 208 204 189 205 228 247 298 301 305 311 303 290 286 309 311 318 319 312 319 331 318 318 315 313 312 309 304 304 301 299 298 296 298 298 293 292 288
211 204 197 204 198 208 203 191 216 230 229 306 309 312 292 294 277 280 296 307 314 320 326 323 328 320 324 328 331 328 322 317 316 318 315 311 309 304 297 293 291 290 288
199 208 201 212 211 197 192 200 189 176 213 299 324 293 295 284 276 270 292 309 312 324 320 322 331 327 328 333 332 335 335 335 331 328 325 319 319 313 308 303 295 286 284
192 191 201 217 221 212 203 188 175 147 353 312 289 291 300 287 284 294 290 309 309 324 324 329 334 341 339 341 331 346 338 338 333 331 327 326 324 320 319 313 309 306 298
196 210 222 228 237 207 131 158 189 297 288 302 286 282 300 295 308 285 297 317 319 329 335 341 333 344 336 347 345 338 335 334 330 331 333 335 330 323 321 316 313 313 308
216 229 252 265 222 199 179 250 277 254 292 269 284 281 279 282 304 308 303 318 326 335 343 348 344 349 347 346 343 336 339 340 341 342 340 339 337 336 333 328 319 310 310
239 191 169 163 207 181 168 173 198 261 266 269 276 291 301 306 302 299 310 324 331 327 337 349 350 346 345 340 342 335 342 347 340 337 333 339 343 343 344 345 345 334 312
146 136 152 143 138 145 165 222 258 247 261 273 294 294 300 301 294 300 308 319 326 324 322 321 337 332 341 324 332 321 335 343 335 333 338 342 350 355 350 345 341 341 340
163 153 158 165 172 193 222 237 236 262 276 287 291 281 292 286 298 306 317 325 327 339 332 344 342 340 327 320 324 318 337 331 339 335 335 338 339 341 341 341 342 339 334
154 159 165 179 189 252 221 222 250 265 287 296 301 290 277 298 330 330 341 346 347 339 349 350 355 344 343 333 327 327 323 325 328 340 329 331 332 330 330 330 332 333 334
166 163 161 200 221 193 206 224 264 283 295 300 307 317 332 319 344 359 4 347 333 332 342 346 345 339 341 341 325 332 327 321 341 339 332 321 328 335 334 331 330 327 325
167 166 180 176 174 190 215 263 289 299 301 318 73 50 16 350 1 0 353 332 315 322 319 331 332 329 327 327 320 331 325 348 330 330 335 319 324 327 329 331 332 332 330
171 174 172 175 181 219 270 282 286 307 345 32 47 31 351 6 331 344 332 322 324 320 321 320 327 321 320 322 319 327 327 333 327 319 320 319 328 323 321 329 333 326 330
174 171 171 177 201 243 269 280 301 39 67 61 2 27 342 332 356 342 349 324 327 330 324 321 322 324 320 323 320 328 327 328 319 316 330 333 329 328 321 339 335 334 325
162 166 173 198 238 235 201 162 133 96 71 46 254 269 333 345 353 341 340 336 333 331 327 317 318 320 319 323 326 328 328 325 323 324 327 335 318 330 340 337 332 333 323
157 164 181 196 179 156 158 148 140 80 140 213 240 320 337 346 343 340 345 335 332 336 323 323 318 320 321 321 327 328 327 326 326 331 343 317 327 325 336 333 328 325 320
151 155 164 164 158 167 169 168 150 131 210 232 327 359 315 341 343 339 341 331 333 329 328 321 323 320 320 324 329 327 323 326 325 338 323 331 326 329 334 333 323 319 324
152 149 143 141 139 130 126 137 143 165 173 122 334 327 350 340 339 332 330 328 325 330 327 324 323 320 320 324 324 326 326 326 331 334 332 330 328 331 335 328 319 321 324
127 118 114 113 109 104 96 95 119 152 231 291 307 328 2 332 325 324 328 334 333 325 325 325 321 322 319 322 325 328 324 324 324 331 325 322 332 333 325 326 316 320 328
113 110 105 98 93 87 78 74 74 79 52 12 313 338 349 324 329 331 333 327 328 323 307 321 319 318 318 322 328 325 326 321 327 329 320 330 338 328 330 333 316 322 342
102 96 95 93 81 77 67 62 81 51 35 18 329 329 332 329 328 327 328 327 328 325 325 322 334 339 341 344 346 346 333 334 330 341 324 331 335 329 337 332 319 340 348
96 88 82 77 75 61 52 50 77 35 14 3 12 354 334 336 333 336 340 337 334 334 338 339 337 338 335 335 344 335 334 333 335 333 331 331 333 338 329 337 335 343 348
Wind_Speed_850mb
25 22 21 18 18 17 13 13 12 9 7 7 8 10 13 18 21 23 22 42 39 41 42 42 42 43 43 45 45 47 46 45 43 43 44 46 47 46 47 48 46 45 47
28 23 22 20 17 16 15 13 12 11 9 8 9 14 19 20 24 26 22 28 41 38 40 42 44 43 43 45 45 45 47 48 49 49 48 47 47 49 49 49 49 49 49
26 24 21 22 20 19 18 12 9 11 8 11 11 12 18 24 23 32 27 20 23 37 43 43 43 44 45 46 48 49 50 50 51 52 51 50 47 47 50 52 52 53 51
26 27 21 21 22 18 16 15 12 7 9 12 9 23 37 31 47 42 22 19 23 30 32 47 47 51 51 51 51 49 49 50 52 51 50 50 47 47 49 48 48 48 48
26 22 18 22 21 22 21 16 13 15 14 9 10 24 37 55 39 22 29 27 36 45 40 41 52 51 54 49 46 45 45 47 50 50 50 53 52 50 48 46 44 41 43
25 29 19 21 19 18 15 13 17 16 10 10 17 33 40 39 30 24 24 21 35 37 33 37 41 28 45 51 43 42 44 45 47 48 49 50 53 51 49 48 45 44 44
20 31 20 25 25 24 27 25 21 13 8 10 23 36 35 37 34 25 23 26 27 32 33 33 28 26 26 35 42 39 37 38 39 42 43 46 46 47 47 48 49 49 47
21 23 27 27 27 29 27 25 20 13 5 14 33 34 25 26 26 25 24 27 31 33 28 26 25 24 27 28 36 43 42 41 41 44 45 46 47 45 42 41 41 40 40
23 23 25 25 26 24 9 16 12 16 22 19 27 20 18 22 28 23 24 26 32 26 24 23 24 24 27 27 30 30 44 48 47 47 48 48 47 45 42 42 41 40 39
25 26 29 20 23 32 28 17 33 24 25 17 26 25 26 28 15 27 26 30 28 21 24 22 22 24 28 27 31 38 51 48 42 43 50 52 49 43 41 39 39 38 38
19 17 20 18 21 20 17 16 30 26 19 17 19 22 22 18 16 19 32 39 27 25 25 23 27 26 32 31 30 38 48 44 40 44 48 50 50 43 40 40 44 35 32
34 27 30 30 35 23 15 12 16 13 14 16 19 20 13 12 17 20 26 28 27 25 25 22 27 36 27 35 29 44 43 41 41 40 44 47 47 42 39 39 42 44 39
33 41 36 36 25 18 10 11 11 12 15 19 18 15 13 10 11 13 17 26 32 23 17 15 29 25 32 29 30 42 36 41 43 40 42 43 42 42 44 44 44 43 40
46 34 32 23 14 15 13 12 13 14 16 19 18 13 7 7 6 9 13 20 27 19 20 23 29 31 33 32 34 45 32 40 40 41 42 41 43 47 48 48 48 47 43
45 22 22 17 16 17 14 10 12 15 16 13 13 8 2 5 6 11 14 15 15 24 28 29 33 35 36 34 36 40 34 38 44 50 44 38 43 43 44 47 48 45 44
34 25 15 20 19 14 8 8 13 12 10 5 3 4 4 7 10 11 15 15 17 19 30 33 36 38 41 36 36 38 32 35 40 48 48 35 40 44 49 50 48 44 41
29 19 20 17 11 6 8 10 8 7 5 6 6 6 7 10 6 8 9 14 17 22 29 34 34 37 40 42 37 41 32 33 30 43 49 36 44 49 45 48 48 44 43
28 24 19 13 8 8 8 4 1 3 6 6 4 3 6 7 11 15 13 19 20 26 30 40 39 41 41 42 42 43 39 36 35 38 38 44 57 57 38 47 56 50 46
30 23 15 9 7 6 5 4 5 4 6 2 5 2 6 11 13 15 16 20 22 30 31 39 44 42 46 45 50 42 41 42 36 41 35 37 55 56 36 42 54 56 51
24 16 10 7 7 7 7 6 4 4 1 1 4 3 8 15 19 21 20 22 26 33 35 39 44 45 46 48 47 49 49 42 44 42 29 42 45 48 36 47 48 55 58
18 12 11 11 11 10 9 10 5 3 2 3 3 5 16 22 27 27 24 32 38 33 36 42 45 47 51 53 50 51 50 49 45 29 34 42 40 39 34 40 44 49 56
20 18 18 16 13 11 8 7 9 5 5 1 3 9 11 21 22 28 29 36 40 44 42 39 42 46 47 48 49 49 49 51 52 32 53 47 42 39 40 43 53 50 57
22 20 19 16 14 13 11 10 7 6 7 7 10 12 12 17 24 27 32 35 35 48 50 52 41 43 47 45 48 47 45 46 47 51 48 47 38 46 42 42 48 49 63
24 23 21 18 14 12 11 10 7 4 3 3 7 10 13 22 30 38 41 36 36 34 36 45 44 40 39 45 39 41 42 43 38 36 50 51 49 45 49 32 40 52 60
25 23 20 18 15 13 12 11 12 5 4 5 13 14 18 29 39 43 44 43 41 34 41 44 43 44 46 44 50 43 40 41 46 50 27 57 50 55 52 25 30 45 64
27 20 18 15 13 11 9 8 10 5 6 7 12 22 27 31 36 40 42 43 44 46 42 39 34 31 33 31 37 37 38 44 46 48 40 59 54 51 37 16 60 46 70
Wind_Direction_850mb
195 194 198 193 198 211 218 216 223 236 257 272 295 306 310 322 318 316 313 302 310 309 311 312 312 309 306 305 306 307 307 306 305 304 303 298 295 291 289 289 291 296 296
210 202 207 204 206 206 212 210 227 224 242 281 301 320 328 322 318 310 309 306 313 312 314 314 312 310 311 310 309 307 303 300 300 299 298 298 295 292 290 292 293 292 294
218 198 203 205 208 208 205 221 232 242 262 288 300 325 331 318 318 309 313 308 314 328 319 313 312 314 312 310 309 306 303 301 300 300 298 297 295 294 292 290 291 293 291
219 210 207 206 210 206 212 214 223 214 231 264 298 337 333 319 319 310 300 311 309 315 320 314 314 314 313 312 311 305 304 303 301 301 301 299 297 295 293 296 297 292 286
215 198 198 204 205 208 208 204 189 205 228 247 298 301 305 311 303 290 286 309 311 318 319 312 319 331 318 318 315 313 312 309 304 304 301 299 298 296 298 298 293 292 288
211 204 197 204 198 208 203 191 216 230 229 306 309 312 292 294 277 280 296 307 314 320 326 323 328 320 324 328 331 328 322 317 316 318 315 311 309 304 297 293 291 290 288
199 208 201 212 211 197 192 200 189 176 213 299 324 293 295 284 276 270 292 309 312 324 320 322 331 327 328 333 332 335 335 335 331 328 325 319 319 313 308 303 295 286 284
192 191 201 217 221 212 203 188 175 147 353 312 289 291 300 287 284 294 290 309 309 324 324 329 334 341 339 341 331 346 338 338 333 331 327 326 324 320 319 313 309 306 298
196 210 222 228 237 207 131 158 189 297 288 302 286 282 300 295 308 285 297 317 319 329 335 341 333 344 336 347 345 338 335 334 330 331 333 335 330 323 321 316 313 313 308
216 229 252 265 222 199 179 250 277 254 292 269 284 281 279 282 304 308 303 318 326 335 343 348 344 349 347 346 343 336 339 340 341 342 340 339 337 336 333 328 319 310 310
239 191 169 163 207 181 168 173 198 261 266 269 276 291 301 306 302 299 310 324 331 327 337 349 350 346 345 340 342 335 342 347 340 337 333 339 343 343 344 345 345 334 312
146 136 152 143 138 145 165 222 258 247 261 273 294 294 300 301 294 300 308 319 326 324 322 321 337 332 341 324 332 321 335 343 335 333 338 342 350 355 350 345 341 341 340
163 153 158 165 172 193 222 237 236 262 276 287 291 281 292 286 298 306 317 325 327 339 332 344 342 340 327 320 324 318 337 331 339 335 335 338 339 341 341 341 342 339 334
154 159 165 179 189 252 221 222 250 265 287 296 301 290 277 298 330 330 341 346 347 339 349 350 355 344 343 333 327 327 323 325 328 340 329 331 332 330 330 330 332 333 334
166 163 161 200 221 193 206 224 264 283 295 300 307 317 332 319 344 359 4 347 333 332 342 346 345 339 341 341 325 332 327 321 341 339 332 321 328 335 334 331 330 327 325
167 166 180 176 174 190 215 263 289 299 301 318 73 50 16 350 1 0 353 332 315 322 319 331 332 329 327 327 320 331 325 348 330 330 335 319 324 327 329 331 332 332 330
171 174 172 175 181 219 270 282 286 307 345 32 47 31 351 6 331 344 332 322 324 320 321 320 327 321 320 322 319 327 327 333 327 319 320 319 328 323 321 329 333 326 330
174 171 171 177 201 243 269 280 301 39 67 61 2 27 342 332 356 342 349 324 327 330 324 321 322 324 320 323 320 328 327 328 319 316 330 333 329 328 321 339 335 334 325
162 166 173 198 238 235 201 162 133 96 71 46 254 269 333 345 353 341 340 336 333 331 327 317 318 320 319 323 326 328 328 325 323 324 327 335 318 330 340 337 332 333 323
157 164 181 196 179 156 158 148 140 80 140 213 240 320 337 346 343 340 345 335 332 336 323 323 318 320 321 321 327 328 327 326 326 331 343 317 327 325 336 333 328 325 320
151 155 164 164 158 167 169 168 150 131 210 232 327 359 315 341 343 339 341 331 333 329 328 321 323 320 320 324 329 327 323 326 325 338 323 331 326 329 334 333 323 319 324
152 149 143 141 139 130 126 137 143 165 173 122 334 327 350 340 339 332 330 328 325 330 327 324 323 320 320 324 324 326 326 326 331 334 332 330 328 331 335 328 319 321 324
127 118 114 113 109 104 96 95 119 152 231 291 307 328 2 332 325 324 328 334 333 325 325 325 321 322 319 322 325 328 324 324 324 331 325 322 332 333 325 326 316 320 328
113 110 105 98 93 87 78 74 74 79 52 12 313 338 349 324 329 331 333 327 328 323 307 321 319 318 318 322 328 325 326 321 327 329 320 330 338 328 330 333 316 322 342
102 96 95 93 81 77 67 62 81 51 35 18 329 329 332 329 328 327 328 327 328 325 325 322 334 339 341 344 346 346 333 334 330 341 324 331 335 329 337 332 319 340 348
96 88 82 77 75 61 52 50 77 35 14 3 12 354 334 336 333 336 340 337 334 334 338 339 337 338 335 335 344 335 334 333 335 333 331 331 333 338 329 337 335 343 348